{"data":{"norad_id":62057,"epoch":"2026-09-21T06:21:05.899104Z","epoch_age_seconds":115349,"freshness":"FRESH","line1":"1 62057U 24217A   26264.26465161  .00185101  00000+0  14950-2 0  9993","line2":"2 62057  53.1571 186.9349 0001018  82.5572 277.5562 15.69771555105891","mean_motion":15.69771555,"eccentricity":0.0001018,"inclination_deg":53.1571,"raan_deg":186.9349,"arg_perigee_deg":82.5572,"mean_anomaly_deg":277.5562,"bstar":0.001495,"rev_number":10589,"period_min":91.733092972245,"perigee_km":358.86471272917,"apogee_km":360.23650592643,"semimajor_km":6737.6876093278,"source":"CELESTRAK","updated_at":"2026-09-22T09:00:49.491394Z"}}